World > North America > United States > Wisconsin   City of Appleton, WI

Appleton, Wisconsin Regional Weather

Lat: 44.26N, Lon: 88.4W
Wx Zone: WIZ038Web Search
Appleton Weather Warning NWS WEATHER ALERT FOR THE APPLETON, WI AREA - Issued: 1148 PM CST Sun Jan 17 2021 Appleton Weather Warning  

Helpful Tip: Abbreviated, 7 Day, 14 Day Forecasts. There is a weather forecast for every taste.

Feedback
Appleton Weather Map
UTC Time: 1/18/2021, 07:20
Your Time:

Appleton, WI Regional Weather

Expires:202101180800;;093176
ASUS43 KGRB 180711
RWRGRB

NORTH-CENTRAL AND NORTHEAST WISCONSIN REGIONAL WEATHER ROUNDUP
NATIONAL WEATHER SERVICE GREEN BAY WI
100 AM CST MON JAN 18 2021


WIZ038-039-048-051-180800-
FOX VALLEY
  
CITY           SKY/WX    TMP DP  RH WIND       PRES   REMARKS
NWS GREEN BAY  CLOUDY    28  21  75 NW7       29.74S                  
APPLETON       CLOUDY    27  18  69 W5        29.72S                  
OSHKOSH        CLOUDY    27  20  75 W5        29.73S                  
FOND DU LAC    CLOUDY    28  20  71 NW7       29.74S                  
$$


SKY/WX - Weather  TMP - Temperature  DP - Dew Point  RH - Relative Humidity
WIND - Wind Direction/Speed PRES - Barometric Pressure VSB - Visibility
WCI - Wind Chill Index E13G22 Wind - East Wind 13 mph/Gusts of 22 mph